Preview of NWS' New Version of Forecast
This preview is not operational and should not be used for support decisions.

Regional Weather Roundup (RWR)

Issued by National Weather Service (NWS)

                            
000
ASUS45 KABQ 230610
RWRNM 
NEW MEXICO REGIONAL WEATHER ROUNDUP
NATIONAL WEATHER SERVICE ALBUQUERQUE NM
1200 AM MDT TUE JUL 23 2019

NOTE: "FAIR" MEANS FEW OR NO CLOUDS BELOW 12,000 FEET AGL WITH NO
       SIGNIFICANT WEATHER OR OBSTRUCTIONS TO VISION.

      THIS PRODUCT IS RELEASED AS TWO VERSIONS.  ONE VERSION NEAR
      THE TOP OF THE HOUR CONTAINING PRELIMINARY DATA FROM ALBUQUERQUE
      AND OTHER STATIONS.  A FINAL VERSION WITH ADDITIONAL DATA IS 
      ISSUED ABOUT 10 MINUTES AFTER THE HOUR.
 
NMZ501-503-504-510>518-230700-
NORTHWEST PLATEAU/NORTHCENTRAL MOUNTAINS
  
CITY           SKY/WX    TMP DP  RH WIND       PRES   REMARKS
FARMINGTON     FAIR      74  50  42 SE12G21   30.35R                  
6HR MIN TEMP:  74; 6HR MAX TEMP:  86;                                

LOS ALAMOS       N/A     64  51  64 S10       30.53S                  
SANTA FE       FAIR      69  51  52 SE10      30.48R                  
6HR MIN TEMP:  69; 6HR MAX TEMP:  82; 6HR PCP: TRACE;                

ANGEL FIRE       N/A     53  50  91 CALM      30.64R                  

$$
NMZ402-403-502-505>509-230700-
WESTCENTRAL MOUNTAINS/SOUTHWEST MOUNTAINS
  
CITY           SKY/WX    TMP DP  RH WIND       PRES   REMARKS
GALLUP         FAIR      69  50  50 SE6       30.40R                  
6HR MIN TEMP:  67; 6HR MAX TEMP:  81;                                

GRANTS         LGT RAIN  62  55  78 SE9       30.49R                  
SILVER CITY    FAIR      71  56  60 NE8       30.34R                  

$$
NMZ407-409-411-412-230700-
SOUTHERN DESERTS
  
CITY           SKY/WX    TMP DP  RH WIND       PRES   REMARKS
DEMING         FAIR      79  54  41 E13       30.24R                  
6HR MIN TEMP:  79; 6HR MAX TEMP:  93;                                

LAS CRUCES     FAIR      78  55  43 SE8       30.27S                  
ALAMOGORDO     CLOUDY    77  55  47 NW3       30.26R                  
T OR C         MOCLDY    78  53  41 SW8       30.32R                  
6HR MIN TEMP:  76; 6HR MAX TEMP:  86; 6HR PCP:  0.01;                


$$
NMZ519>523-230700-
CENTRAL VALLEYS/CENTRAL HIGHLANDS
  
CITY           SKY/WX    TMP DP  RH WIND       PRES   REMARKS
ALBUQUERQUE    FAIR      74  55  51 E14       30.40R                  
6HR MIN TEMP:  69; 6HR MAX TEMP:  87;                                

DOUBLE EAGLE   FAIR      65  56  72 NW6       30.44R                  
MORIARTY ARPT  FAIR      62  53  72 CALM      30.50R                  
6HR MIN TEMP:  62; 6HR MAX TEMP:  81;                                

CLINES CORNERS NOT AVBL                                               
BELEN          MOCLDY    68  56  66 NW14      30.40R                  
6HR MIN TEMP:  68; 6HR MAX TEMP:  89;                                

SOCORRO        MOCLDY    74  55  51 NW6       30.36R                  
6HR MIN TEMP:  74; 6HR MAX TEMP:  88;                                


$$
NMZ524>526-539-540-230700-
SOUTHCENTRAL MOUNTAINS
  
CITY           SKY/WX    TMP DP  RH WIND       PRES   REMARKS
RUIDOSO        LGT RAIN  63  57  82 SE9       30.52R                  

$$
NMZ527>531-230700-
NORTHEAST HIGHLANDS/NORTHEAST PLAINS
  
CITY           SKY/WX    TMP DP  RH WIND       PRES   REMARKS
LAS VEGAS      MOCLDY    62  55  77 S5        30.53R                  
6HR MIN TEMP:  62; 6HR MAX TEMP:  73;                                

RATON          LGT RAIN  58  56  93 SE7       30.47F                  
6HR MIN TEMP:  58; 6HR MAX TEMP:  76; 6HR PCP:  0.36;                

CLAYTON        CLOUDY    66  60  81 SE7       30.42S                  
6HR MIN TEMP:  65; 6HR MAX TEMP:  75;                                


$$
NMZ532>537-230700-
EASTCENTRAL PLAINS
  
CITY           SKY/WX    TMP DP  RH WIND       PRES   REMARKS
SANTA ROSA     MOCLDY    74  60  60 E7        30.38F                  
TUCUMCARI      MOCLDY    68  62  81 E8        30.34S                  
6HR MIN TEMP:  68; 6HR MAX TEMP:  84;                                

CANNON AFB     CLOUDY    73  58  60 E9        30.37S                  
6HR MIN TEMP:  70; 6HR MAX TEMP:  78;                                

CLOVIS AIRPORT CLOUDY    71  58  63 E8        30.37R                  

$$
NMZ028-029-538-230700-
SOUTHEAST PLAINS
  
CITY           SKY/WX    TMP DP  RH WIND       PRES   REMARKS
ROSWELL        MOCLDY    74  64  71 CALM      30.30R                  
6HR MIN TEMP:  73; 6HR MAX TEMP:  84; 6HR PCP: TRACE;                

ARTESIA        MOCLDY    73  64  73 SW5       30.31S                  
CARLSBAD       FAIR      71  65  81 CALM      30.27R                  
6HR MIN TEMP:  66; 6HR MAX TEMP:  71;                                



$$